Knox County (4I3)

 

Airport Diagram
No Airport Diagram Available
Current Weather/Forecast (MVFR Conditions)
METAR K4I3 071355Z AUTO 33008G14KT 10SM -DZ SCT011 BKN030 OVC055 07/06 A2998 RMK AO2 P0001
TAF

Airport Information

All Charts
General
Chart Name View
TAKEOFF MINIMUMS
ALTERNATE MINIMUMS

Approaches
Chart Name Download
RNAV (GPS) RWY 10
RNAV (GPS) RWY 28
VOR-A


Airport Statistics
Departures Arrivals Local
All Collected Stats since June 2016: 3 4 1
2021 Stats: 2 1 0
May Stats: 0 0 0

Inbound Traffic (Arrivals) - 0

No inbound traffic.


Outbound Traffic (Departures) - 0

No outbound traffic.


Local Traffic (Pattern) - 0

No local traffic.